Regional Weather Roundup
Issued by NWS

Home | Current Version | Previous Version | Graphics & Text | Print | Product List | Glossary On
Versions: 1 2 3 4 5 6 7 8 9 10 11 12 13 14 15 16 17 18 19 20 21 22 23 24 25 26 27 28 29 30 31 32 33 34 35 36 37 38 39 40 41 42 43 44 45 46 47 48 49 50
000
ASUS43 KLSX 122007
RWRMO

WEATHER SUMMARY FOR MISSOURI
NATIONAL WEATHER SERVICE SPRINGFIELD MO
200 PM CST FRI FEB 12 2016

NOTE: "FAIR" INDICATES FEW OR NO CLOUDS BELOW 12,000 FEET WITH NO
       SIGNIFICANT WEATHER AND/OR OBSTRUCTIONS TO VISIBILITY.
       CURRENT SKY AND/OR WEATHER CONDITIONS ARE NOT AVAILABLE FOR
       CHILLICOTHE AND FARMINGTON.

MOZ001>031-035>038-043-044-053-054-122100-
...NORTHERN AND WESTERN MISSOURI...

CITY           SKY/WX    TMP DP  RH WIND       PRES   REMARKS
KANSAS CTY INT SUNNY     35  16  45 N18       30.44R WCI  24
KANSAS C DTWN  SUNNY     37  16  42 NW12      30.44R WCI  29
LEE`S SUMMIT   SUNNY     36  14  40 N16       30.42R WCI  26
ST JOSEPH      SUNNY     33  12  41 N14G25    30.48S WCI  23
CHILLICOTHE      N/A     33  13  43 NW14G24   30.43R WCI  23
KIRKSVILLE     SUNNY     28  13  53 NW15      30.39S WCI  16

$$
MOZ066>068-077>081-088>096-101>105-122100-
...SOUTHWEST MISSOURI...

CITY           SKY/WX    TMP DP  RH WIND       PRES   REMARKS
SPRINGFIELD    SUNNY     45  22  40 N16G25    30.32S
JOPLIN         SUNNY     44  25  47 N14G25    30.38S

$$
MOZ032>034-039>042-045>050-055>058-069>072-122100-
...CENTRAL MISSOURI...

CITY           SKY/WX    TMP DP  RH WIND       PRES   REMARKS
COLUMBIA       SUNNY     35  19  52 NW18      30.35F WCI  24
JEFFERSON CITY MOSUNNY   36  19  50 W18       30.36F WCI  26
ROLLA          SUNNY     38  22  52 NW17G24   30.29F WCI  28
SEDALIA        SUNNY     38  18  44 NW20G25   30.39S WCI  28
WHITEMAN AFB   MOSUNNY   37  17  44 N18G24    30.38S WCI  27
WARRENSBURG    SUNNY     37  19  48 NW14G20   30.41R WCI  29
OSAGE BEACH    MOSUNNY   39  19  45 N13G18    30.34F

$$
MOZ051-052-059>065-122100-
...EAST CENTRAL MISSOURI...

CITY           SKY/WX    TMP DP  RH WIND       PRES   REMARKS
ST LOUIS INTL  PTSUNNY   31  22  69 NW16      30.32R WCI  20
SPIRIT OF STL  PTSUNNY   32  21  64 NW17G23   30.32S WCI  21
ST CHARLES     CLOUDY    30  21  69 NW18G24   30.33R WCI  18

$$
MOZ072>076-082>087-097>100-106>115-122100-
...SOUTH CENTRAL AND SOUTHEAST MISSOURI...

CITY           SKY/WX    TMP DP  RH WIND       PRES   REMARKS
CAPE GIRARDEAU PTSUNNY   41  25  53 N14G24    30.27S
FARMINGTON     CLOUDY    36  22  56 NW16G22   30.27S WCI  26
POPLAR BLUFF   SUNNY     47  25  42 W10G20    30.25S
WEST PLAINS    SUNNY     49  22  34 N13G22    30.27S

$$



USA.gov is the U.S. government's official web portal to all federal, state and local government web resources and services.